Content
SEND FEEDBACK

Daily
Averages
Monthly
Summary
United States of America

VERONA, MISSISSIPPI


Home > North America > United States > Mississippi
Elevation: 276 feet     Latitude: 34 16N     Longitude: 088 44W

WEATHER
 
SELECT A DAY
Number of Records: 155,498;   Date Range: 1/1/00 - 12/27/14
 
SHARE

PRINT THIS DATA

[ ← Previous Day ]
WEATHER ALMANAC - JANUARY 23, 2013
[ Next Day → ]
[ °C ]   °F
Weather ElementAverageHighLow
Temperature42.7 °F52 °F (2:53 pm)32 °F (5:53 am)
Dewpoint31.6 °F39 °F (10:53 pm)23 °F (1:53 am)
Humidity65.6 %86 % (10:53 pm)52 % (10:53 am)
Barometer30.29 in30.37 in (6:53 am)30.22 in (6:53 pm)
Wind Speed4 mph10.4 mph (9:53 am)
Weather ElementAverage
Visibility10 mi
Wind DirectionESE (115.7 °)

Weather ElementTotal
Precipitation---
Heating Degree Days23 (Base 65)
Averaged from 23 records on January 23, 2013
WEATHER CONDITIONS BREAKOUT
WIND DIRECTION BREAKOUT
WEATHER BY HOUR - JANUARY 23, 2013
[ °C ]   °F
Local TimeTemperatureDewpointHumidityBarometerVisibilityWind DirectionWind SpeedGust SpeedPrecipitationEventsConditions
1:53 AM37.9 °F23.0 °F55 %30.35 in10.0 miCalmOvercast
2:53 AM36.0 °F27.0 °F70 %30.35 in10.0 miCalmOvercast
3:53 AM37.9 °F25.0 °F60 %30.35 in10.0 miCalmOvercast
4:53 AM33.1 °F25.0 °F72 %30.35 in10.0 miCalmClear
5:53 AM32.0 °F24.1 °F73 %30.36 in10.0 miCalmClear
6:53 AM35.1 °F27.0 °F72 %30.37 in10.0 miCalmOvercast
7:53 AM37.0 °F26.1 °F65 %30.37 in10.0 miCalmOvercast
8:53 AM39.9 °F26.1 °F58 %30.37 in10.0 miSSW (200°)5.8 mphOvercast
9:53 AM44.1 °F28.0 °F53 %30.37 in10.0 miSSW (210°)10.4 mphOvercast
10:53 AM46.9 °F30.0 °F52 %30.36 in10.0 miSSW (200°)8.1 mphMostly Cloudy
11:53 AM46.0 °F30.9 °F56 %30.31 in10.0 miSSW (200°)9.2 mphOvercast
12:53 PM46.9 °F32.0 °F56 %30.28 in10.0 miSouth (190°)5.8 mphOvercast
1:53 PM48.9 °F33.1 °F54 %30.26 in10.0 miSSW (200°)6.9 mphOvercast
2:53 PM52.0 °F35.1 °F53 %30.24 in10.0 miSouth (190°)6.9 mphScattered Clouds
3:53 PM52.0 °F36.0 °F54 %30.23 in10.0 miSouth (190°)8.1 mphClear
4:53 PM51.1 °F37.0 °F59 %30.23 in10.0 miSSW (200°)4.6 mphMostly Cloudy
5:53 PM46.0 °F37.0 °F71 %30.23 in10.0 miSouth (190°)4.6 mphClear
6:53 PM44.1 °F37.0 °F76 %30.22 in10.0 miSSW (210°)8.1 mphClear
7:53 PM43.0 °F36.0 °F76 %30.22 in10.0 miSW (220°)6.9 mphClear
8:53 PM43.0 °F37.0 °F80 %30.22 in10.0 miCalmPartly Cloudy
9:53 PM44.1 °F37.0 °F76 %30.22 in10.0 miSW (220°)3.5 mphOvercast
10:53 PM43.0 °F39.0 °F86 %30.22 in10.0 miNE (40°)3.5 mphOvercast
11:53 PM43.0 °F37.9 °F82 %30.22 in10.0 miCalmMostly Cloudy
Hourly data recorded from KTUP, located miles away from Verona, Mississippi







STORIES FROM OUR PARTNERS